This is the latest recevied weather packets stored in our database for station/object DO7ZT-13. If no packets are shown the sender has not sent any weather packets the latest 1 day(s).
| Time | Temp. | Humidity | Pressure | Rain* | Wind** | Luminosity | Snow |
|---|---|---|---|---|---|---|---|
| 1777948221 | 12.22° C | 87% | 1010.3 hPa | 0 mm | 0 m/s | - | - |
| 1777947908 | 12.22° C | 87% | 1010.3 hPa | 0 mm | 0 m/s | - | - |
| 1777947629 | 12.22° C | 88% | 1010.3 hPa | 0 mm | 0.45 m/s, 60° | - | - |
| 1777947308 | 12.22° C | 86% | 1010.3 hPa | 0 mm | 0 m/s | - | - |
| 1777947020 | 12.22° C | 87% | 1010.3 hPa | 0 mm | 0 m/s | - | - |
| 1777946708 | 12.22° C | 84% | 1010.3 hPa | 0 mm | 0 m/s | - | - |
| 1777946420 | 12.22° C | 84% | 1010.6 hPa | 0 mm | 0 m/s | - | - |
| 1777946108 | 12.22° C | 85% | 1010.6 hPa | 0 mm | 0.45 m/s, 42° | - | - |
| 1777945821 | 12.22° C | 82% | 1010.6 hPa | 0 mm | 0 m/s | - | - |
| 1777945508 | 12.78° C | 81% | 1010.8 hPa | 0 mm | 0 m/s | - | - |
| 1777945220 | 12.78° C | 79% | 1010.8 hPa | 0 mm | 0 m/s | - | - |
| 1777944908 | 12.22° C | 80% | 1010.8 hPa | 0 mm | 0.89 m/s, 250° | - | - |
| 1777944621 | 12.22° C | 83% | 1010.5 hPa | 0 mm | 0.45 m/s, 251° | - | - |
| 1777944308 | 12.78° C | 81% | 1010.5 hPa | 0 mm | 0 m/s | - | - |
| 1777944021 | 12.22° C | 81% | 1010.5 hPa | 0 mm | 0 m/s | - | - |
| 1777943708 | 12.22° C | 82% | 1010.7 hPa | 0 mm | 0 m/s | - | - |
| 1777943421 | 12.22° C | 80% | 1010.7 hPa | 0 mm | 0 m/s | - | - |
| 1777943108 | 12.22° C | 81% | 1010.7 hPa | 0 mm | 0 m/s | - | - |
| 1777942821 | 12.22° C | 81% | 1010.8 hPa | 0 mm | 0 m/s | - | - |
| 1777942513 | 12.22° C | 83% | 1010.8 hPa | 0 mm | 0 m/s | - | - |
| 1777942233 | 12.22° C | 83% | 1010.8 hPa | 0 mm | 0 m/s | - | - |
| 1777941920 | 12.22° C | 83% | 1010.8 hPa | 0 mm | 0 m/s | - | - |
| 1777941608 | 12.22° C | 82% | 1010.8 hPa | 0 mm | 0 m/s | - | - |
| 1777941321 | 12.22° C | 81% | 1010.8 hPa | 0 mm | 0 m/s | - | - |
| 1777941008 | 12.78° C | 82% | 1010.7 hPa | 0 mm | 0 m/s | - | - |
* Rain latest hour (hover to see other rain measurements)
** Current wind speed in m/s (hover to see current wind gust speed)